EJU7161 LEBL-LIML

Flight info

Callsign EJU7161
Flight time 1h 15m
Altitude 30000
Route AGENA DCT BODEQ DCT LUMAS DCT UNANA DCT STP DCT RAPED DCT PIGOS DCT EKSID DCT NOSTA DCT EGHIN DCT DORAV/N0340F180 M985 ITCAP
Aircraft A319/M-SDE3FGHIRWY/LB1

Departure

Time 2026-05-08 09:01
Airport Josep Tarradellas Barcelona-El Prat Airport (LEBL)

Arrival

Time 2026-05-08 10:16
Airport Milano Linate Airport (LIML)
Time Latitude Longitude Altitude Speed Heading
2026-05-08 08:14 41.30408 2.08313 23 ft 0 kts 274°
2026-05-08 08:48 41.30407 2.08322 24 ft 2 kts 274°
2026-05-08 08:48 41.30406 2.08344 24 ft 2 kts 274°
2026-05-08 08:49 41.30405 2.08361 24 ft 2 kts 260°
2026-05-08 08:49 41.30414 2.08383 24 ft 2 kts 218°
2026-05-08 08:49 41.30423 2.08389 24 ft 1 kts 195°
2026-05-08 08:49 41.30413 2.08385 24 ft 2 kts 194°
2026-05-08 08:50 41.30398 2.08382 24 ft 4 kts 184°
2026-05-08 08:50 41.30374 2.08388 24 ft 1 kts 156°
2026-05-08 08:50 41.30372 2.08389 24 ft 0 kts 157°
2026-05-08 08:52 41.30367 2.08392 24 ft 1 kts 157°
2026-05-08 08:52 41.30351 2.08401 24 ft 3 kts 157°
2026-05-08 08:52 41.30325 2.08416 24 ft 4 kts 155°
2026-05-08 08:53 41.30288 2.08439 24 ft 6 kts 155°
2026-05-08 08:53 41.30240 2.08468 24 ft 8 kts 155°
2026-05-08 08:53 41.30182 2.08482 24 ft 9 kts 208°
2026-05-08 08:53 41.30145 2.08398 24 ft 11 kts 245°
2026-05-08 08:54 41.30110 2.08298 24 ft 12 kts 245°
2026-05-08 08:54 41.30054 2.08257 24 ft 11 kts 159°
2026-05-08 08:54 41.29977 2.08303 24 ft 12 kts 156°
2026-05-08 08:54 41.29892 2.08354 24 ft 13 kts 155°
2026-05-08 08:55 41.29799 2.08410 24 ft 14 kts 156°
2026-05-08 08:55 41.29693 2.08474 24 ft 15 kts 155°
2026-05-08 08:55 41.29589 2.08536 24 ft 16 kts 155°
2026-05-08 08:55 41.29481 2.08601 24 ft 17 kts 155°
2026-05-08 08:56 41.29369 2.08669 24 ft 17 kts 155°
2026-05-08 08:56 41.29255 2.08738 24 ft 18 kts 155°
2026-05-08 08:56 41.29139 2.08808 24 ft 18 kts 155°
2026-05-08 08:56 41.29021 2.08879 24 ft 18 kts 155°
2026-05-08 08:57 41.28946 2.08941 24 ft 10 kts 106°
2026-05-08 08:57 41.28970 2.09045 24 ft 12 kts 65°
2026-05-08 08:57 41.29008 2.09155 24 ft 13 kts 65°
2026-05-08 08:57 41.29049 2.09276 24 ft 14 kts 66°
2026-05-08 08:58 41.29093 2.09404 24 ft 15 kts 65°
2026-05-08 08:58 41.29139 2.09538 24 ft 16 kts 65°
2026-05-08 08:58 41.29189 2.09684 24 ft 16 kts 65°
2026-05-08 08:58 41.29240 2.09831 24 ft 17 kts 65°
2026-05-08 08:59 41.29280 2.09959 24 ft 12 kts 81°
2026-05-08 08:59 41.29257 2.10077 24 ft 13 kts 111°
2026-05-08 08:59 41.29241 2.10201 24 ft 14 kts 71°
2026-05-08 08:59 41.29243 2.10288 24 ft 9 kts 143°
2026-05-08 09:00 41.29194 2.10247 24 ft 10 kts 247°
2026-05-08 09:00 41.29143 2.10098 24 ft 42 kts 246°
2026-05-08 09:00 41.28907 2.09406 24 ft 119 kts 246°
2026-05-08 09:00 41.28479 2.08151 143 ft 168 kts 245°
2026-05-08 09:01 41.27981 2.06743 899 ft 167 kts 237°
2026-05-08 09:01 41.27161 2.05712 1681 ft 164 kts 198°
2026-05-08 09:01 41.25998 2.05655 2316 ft 168 kts 168°
2026-05-08 09:01 41.24780 2.05861 2833 ft 185 kts 172°
2026-05-08 09:02 41.23422 2.05947 3311 ft 207 kts 176°
2026-05-08 09:02 41.21943 2.05939 3964 ft 220 kts 179°
2026-05-08 09:02 41.20424 2.05873 4867 ft 222 kts 180°
2026-05-08 09:02 41.18894 2.05785 5780 ft 224 kts 180°
2026-05-08 09:03 41.17306 2.05689 6680 ft 226 kts 180°
2026-05-08 09:03 41.15702 2.05610 7337 ft 240 kts 180°
2026-05-08 09:03 41.14008 2.05533 8123 ft 247 kts 181°
2026-05-08 09:03 41.12301 2.05455 9006 ft 251 kts 181°
2026-05-08 09:04 41.10521 2.05370 9917 ft 253 kts 181°
2026-05-08 09:04 41.08775 2.05287 10779 ft 256 kts 181°
2026-05-08 09:04 41.06988 2.05203 11607 ft 260 kts 182°
2026-05-08 09:04 41.05133 2.05116 12437 ft 264 kts 182°
2026-05-08 09:05 41.03277 2.05028 13218 ft 267 kts 182°
2026-05-08 09:05 41.01398 2.04961 13975 ft 271 kts 178°
2026-05-08 09:05 40.99575 2.05586 14681 ft 279 kts 152°
2026-05-08 09:05 40.98082 2.07314 15204 ft 296 kts 129°
2026-05-08 09:06 40.96856 2.09632 15643 ft 311 kts 126°
2026-05-08 09:06 40.95615 2.12052 15970 ft 329 kts 126°
2026-05-08 09:06 40.94292 2.14596 16294 ft 347 kts 127°
2026-05-08 09:06 40.92875 2.17282 16707 ft 360 kts 127°
2026-05-08 09:07 40.91423 2.20006 17317 ft 366 kts 128°
2026-05-08 09:07 40.89954 2.22749 17951 ft 371 kts 128°
2026-05-08 09:07 40.88429 2.25719 18608 ft 378 kts 121°
2026-05-08 09:07 40.87632 2.29082 19200 ft 388 kts 95°
2026-05-08 09:08 40.87938 2.32663 19862 ft 392 kts 71°
2026-05-08 09:08 40.89223 2.35757 20482 ft 394 kts 51°
2026-05-08 09:08 40.90947 2.38586 21088 ft 397 kts 49°
2026-05-08 09:08 40.92697 2.41424 21682 ft 400 kts 50°
2026-05-08 09:09 40.94474 2.44355 22290 ft 403 kts 51°
2026-05-08 09:09 40.96220 2.47290 22834 ft 408 kts 51°
2026-05-08 09:09 40.97976 2.50274 23374 ft 411 kts 51°
2026-05-08 09:09 40.99710 2.53240 23901 ft 416 kts 51°
2026-05-08 09:10 41.01513 2.56340 24417 ft 420 kts 51°
2026-05-08 09:10 41.03304 2.59426 24929 ft 424 kts 51°
2026-05-08 09:10 41.05124 2.62562 25435 ft 428 kts 51°
2026-05-08 09:10 41.06962 2.65736 25909 ft 433 kts 51°
2026-05-08 09:11 41.08823 2.68949 26355 ft 437 kts 51°
2026-05-08 09:11 41.10719 2.72224 26760 ft 443 kts 51°
2026-05-08 09:11 41.12593 2.75468 27180 ft 447 kts 51°
2026-05-08 09:11 41.14481 2.78734 27595 ft 450 kts 51°
2026-05-08 09:12 41.16410 2.82066 28013 ft 454 kts 51°
2026-05-08 09:12 41.18337 2.85403 28433 ft 457 kts 51°
2026-05-08 09:12 41.20270 2.88757 28965 ft 457 kts 51°
2026-05-08 09:12 41.22255 2.92209 29559 ft 455 kts 51°
2026-05-08 09:13 41.24271 2.95718 30127 ft 454 kts 51°
2026-05-08 09:13 41.26233 2.99140 30642 ft 454 kts 51°
2026-05-08 09:13 41.28219 3.02605 31147 ft 454 kts 50°
2026-05-08 09:13 41.30129 3.05941 31645 ft 454 kts 50°
2026-05-08 09:14 41.32095 3.09381 32150 ft 453 kts 50°
2026-05-08 09:14 41.34049 3.12803 32613 ft 453 kts 50°
2026-05-08 09:14 41.36038 3.16293 33003 ft 455 kts 50°
2026-05-08 09:14 41.38028 3.19784 33348 ft 458 kts 50°
2026-05-08 09:15 41.40041 3.23321 33711 ft 460 kts 50°
2026-05-08 09:15 41.41965 3.26707 33985 ft 462 kts 50°
2026-05-08 09:15 41.45857 3.33572 34000 ft 464 kts 50°
2026-05-08 09:16 41.49733 3.40427 34003 ft 464 kts 51°
2026-05-08 09:16 41.53153 3.47741 34006 ft 467 kts 61°
2026-05-08 09:17 41.55605 3.55775 34007 ft 468 kts 72°
2026-05-08 09:17 41.57125 3.64323 34012 ft 469 kts 78°
2026-05-08 09:18 41.58443 3.72881 34014 ft 469 kts 78°
2026-05-08 09:18 41.59882 3.81829 34015 ft 469 kts 78°
2026-05-08 09:19 41.61292 3.90493 34018 ft 470 kts 77°
2026-05-08 09:19 41.62675 3.99021 34017 ft 469 kts 77°
2026-05-08 09:20 41.64051 4.07592 34016 ft 470 kts 77°
2026-05-08 09:20 41.65431 4.16251 34015 ft 470 kts 77°
2026-05-08 09:21 41.66788 4.24796 34015 ft 470 kts 77°
2026-05-08 09:23 41.71501 4.54859 34015 ft 470 kts 77°
2026-05-08 09:23 41.73366 4.63159 34014 ft 466 kts 63°
2026-05-08 09:24 41.76617 4.70663 34015 ft 460 kts 48°
2026-05-08 09:24 41.80879 4.76865 34017 ft 454 kts 39°
2026-05-08 09:25 41.85461 4.82775 34018 ft 454 kts 38°
2026-05-08 09:25 41.89985 4.88681 34018 ft 454 kts 38°
2026-05-08 09:26 41.94512 4.94664 34018 ft 453 kts 38°
2026-05-08 09:26 41.99009 5.00642 34018 ft 452 kts 38°
2026-05-08 09:27 42.03516 5.06644 34011 ft 451 kts 38°
2026-05-08 09:27 42.07987 5.12614 34011 ft 451 kts 38°
2026-05-08 09:28 42.12501 5.18651 34011 ft 451 kts 38°
2026-05-08 09:28 42.17004 5.24692 34011 ft 452 kts 38°
2026-05-08 09:29 42.21478 5.30703 34014 ft 453 kts 38°
2026-05-08 09:29 42.26001 5.36796 34011 ft 453 kts 38°
2026-05-08 09:30 42.30524 5.42902 34013 ft 452 kts 38°
2026-05-08 09:30 42.34965 5.48911 34017 ft 451 kts 38°
2026-05-08 09:31 42.39442 5.54978 34018 ft 452 kts 37°
2026-05-08 09:31 42.43944 5.61091 34015 ft 452 kts 37°
2026-05-08 09:32 42.48472 5.67255 34014 ft 453 kts 38°
2026-05-08 09:32 42.52951 5.73365 34015 ft 453 kts 38°
2026-05-08 09:33 42.57501 5.79586 34012 ft 454 kts 38°
2026-05-08 09:33 42.61988 5.85736 34007 ft 454 kts 38°
2026-05-08 09:34 42.66579 5.92039 34004 ft 454 kts 38°
2026-05-08 09:34 42.71114 5.98285 34006 ft 453 kts 38°
2026-05-08 09:35 42.75794 6.04744 34008 ft 453 kts 38°
2026-05-08 09:35 42.80460 6.11203 34009 ft 453 kts 38°
2026-05-08 09:36 42.85045 6.17495 34009 ft 451 kts 35°
2026-05-08 09:36 42.89947 6.23297 34012 ft 448 kts 31°
2026-05-08 09:37 42.94794 6.28809 34013 ft 447 kts 31°
2026-05-08 09:37 42.99900 6.34657 34016 ft 447 kts 32°
2026-05-08 09:38 43.05080 6.40623 34021 ft 447 kts 32°
2026-05-08 09:38 43.10139 6.46466 34018 ft 446 kts 32°
2026-05-08 09:39 43.15236 6.52364 34020 ft 446 kts 32°
2026-05-08 09:39 43.20329 6.58499 34017 ft 451 kts 37°
2026-05-08 09:40 43.24942 6.65674 34022 ft 456 kts 47°
2026-05-08 09:40 43.28985 6.73353 34010 ft 456 kts 49°
2026-05-08 09:41 43.33110 6.81259 34018 ft 455 kts 49°
2026-05-08 09:41 43.37121 6.88894 34011 ft 456 kts 49°
2026-05-08 09:42 43.41139 6.96533 34023 ft 456 kts 49°
2026-05-08 09:42 43.45287 7.04462 34013 ft 455 kts 49°
2026-05-08 09:43 43.49357 7.12258 34018 ft 455 kts 50°
2026-05-08 09:43 43.53458 7.20142 34020 ft 454 kts 50°
2026-05-08 09:44 43.57544 7.28023 34018 ft 454 kts 50°
2026-05-08 09:44 43.61540 7.35750 34024 ft 453 kts 50°
2026-05-08 09:45 43.65595 7.43593 34014 ft 451 kts 50°
2026-05-08 09:45 43.69653 7.51476 34014 ft 451 kts 50°
2026-05-08 09:46 43.73685 7.59333 34007 ft 450 kts 50°
2026-05-08 09:46 43.77579 7.66936 34005 ft 450 kts 52°
2026-05-08 09:47 43.81613 7.74844 34015 ft 450 kts 52°
2026-05-08 09:47 43.85531 7.82502 34019 ft 449 kts 51°
2026-05-08 09:48 43.89450 7.90174 34024 ft 448 kts 52°
2026-05-08 09:48 43.93500 7.98133 34036 ft 448 kts 52°
2026-05-08 09:49 43.97469 8.05953 33986 ft 448 kts 52°
2026-05-08 09:49 43.99367 8.09703 33759 ft 447 kts 52°
2026-05-08 09:49 44.01166 8.13261 33514 ft 443 kts 53°
2026-05-08 09:49 44.03074 8.17039 33284 ft 439 kts 53°
2026-05-08 09:50 44.05038 8.20944 33028 ft 437 kts 54°
2026-05-08 09:50 44.06799 8.24757 32761 ft 435 kts 58°
2026-05-08 09:50 44.08535 8.28750 32501 ft 434 kts 59°
2026-05-08 09:50 44.10242 8.32720 32209 ft 434 kts 59°
2026-05-08 09:51 44.11798 8.36352 31876 ft 434 kts 59°
2026-05-08 09:51 44.13325 8.39911 31453 ft 434 kts 59°
2026-05-08 09:51 44.14893 8.43559 30909 ft 435 kts 60°
2026-05-08 09:51 44.16615 8.47572 30233 ft 435 kts 60°
2026-05-08 09:52 44.18246 8.51385 29567 ft 435 kts 60°
2026-05-08 09:52 44.19951 8.55378 28887 ft 434 kts 59°
2026-05-08 09:52 44.21532 8.59079 28255 ft 433 kts 59°
2026-05-08 09:52 44.23132 8.62827 27623 ft 432 kts 59°
2026-05-08 09:53 44.24714 8.66534 27177 ft 426 kts 60°
2026-05-08 09:53 44.26287 8.70229 26732 ft 420 kts 60°
2026-05-08 09:53 44.27943 8.74124 26254 ft 414 kts 60°
2026-05-08 09:53 44.29559 8.77929 25780 ft 409 kts 60°
2026-05-08 09:54 44.31057 8.81463 25342 ft 404 kts 60°
2026-05-08 09:54 44.32589 8.85159 24873 ft 400 kts 63°
2026-05-08 09:54 44.33972 8.88958 24389 ft 396 kts 65°
2026-05-08 09:54 44.35280 8.92733 23921 ft 393 kts 65°
2026-05-08 09:55 44.36545 8.96417 23455 ft 390 kts 65°
2026-05-08 09:55 44.37832 9.00160 22999 ft 387 kts 65°
2026-05-08 09:55 44.39133 9.03940 22542 ft 384 kts 65°
2026-05-08 09:55 44.40319 9.07373 22117 ft 381 kts 64°
2026-05-08 09:56 44.41812 9.10423 21667 ft 379 kts 43°
2026-05-08 09:56 44.43998 9.12428 21236 ft 375 kts 20°
2026-05-08 09:56 44.46549 9.13224 20831 ft 370 kts
2026-05-08 09:56 44.49147 9.13583 20405 ft 367 kts
2026-05-08 09:57 44.54287 9.14295 19562 ft 364 kts
2026-05-08 09:57 44.56966 9.14703 19108 ft 362 kts
2026-05-08 09:57 44.59636 9.15126 18663 ft 360 kts
2026-05-08 09:58 44.62241 9.15546 18444 ft 353 kts
2026-05-08 09:58 44.64643 9.15935 18326 ft 348 kts
2026-05-08 09:58 44.67056 9.16327 18205 ft 344 kts
2026-05-08 09:58 44.69468 9.16721 18078 ft 341 kts
2026-05-08 09:59 44.71809 9.17182 17882 ft 335 kts
2026-05-08 09:59 44.74078 9.17835 17627 ft 328 kts 11°
2026-05-08 09:59 44.76305 9.18526 17331 ft 324 kts 12°
2026-05-08 09:59 44.78551 9.19229 17029 ft 319 kts 12°
2026-05-08 10:00 44.80722 9.20260 16694 ft 315 kts 32°
2026-05-08 10:00 44.82272 9.22576 16359 ft 310 kts 65°
2026-05-08 10:00 44.82762 9.25475 16070 ft 303 kts 88°
2026-05-08 10:00 44.82810 9.28454 15811 ft 298 kts 90°
2026-05-08 10:01 44.82854 9.31371 15547 ft 294 kts 89°
2026-05-08 10:01 44.82948 9.34219 15238 ft 289 kts 87°
2026-05-08 10:01 44.83078 9.37099 14801 ft 287 kts 87°
2026-05-08 10:01 44.83227 9.40056 14325 ft 285 kts 86°
2026-05-08 10:02 44.83373 9.42840 13897 ft 282 kts 86°
2026-05-08 10:02 44.83519 9.45598 13435 ft 280 kts 86°
2026-05-08 10:02 44.83838 9.48290 13041 ft 278 kts 72°
2026-05-08 10:02 44.84629 9.50779 12704 ft 276 kts 60°
2026-05-08 10:03 44.85612 9.53099 12385 ft 273 kts 59°
2026-05-08 10:03 44.86611 9.55386 12066 ft 271 kts 59°
2026-05-08 10:03 44.87603 9.57677 11789 ft 266 kts 59°
2026-05-08 10:03 44.88570 9.59905 11689 ft 254 kts 55°
2026-05-08 10:04 44.89844 9.61500 11565 ft 246 kts 23°
2026-05-08 10:04 44.91537 9.61840 11282 ft 247 kts 355°
2026-05-08 10:04 44.93245 9.61576 10988 ft 246 kts 355°
2026-05-08 10:04 44.94994 9.61334 10685 ft 245 kts 356°
2026-05-08 10:05 44.96688 9.61119 10388 ft 244 kts 353°
2026-05-08 10:05 44.98314 9.60156 10037 ft 247 kts 316°
2026-05-08 10:05 44.99194 9.58061 9734 ft 247 kts 282°
2026-05-08 10:05 44.99195 9.55476 9442 ft 245 kts 263°
2026-05-08 10:06 44.99000 9.52945 9146 ft 244 kts 263°
2026-05-08 10:06 44.98827 9.50400 8843 ft 246 kts 264°
2026-05-08 10:06 44.98671 9.47788 8530 ft 246 kts 265°
2026-05-08 10:06 44.98539 9.45393 8246 ft 245 kts 265°
2026-05-08 10:07 44.98409 9.42999 7981 ft 244 kts 265°
2026-05-08 10:07 44.98278 9.40584 7697 ft 244 kts 265°
2026-05-08 10:07 44.98148 9.38163 7409 ft 243 kts 265°
2026-05-08 10:07 44.98047 9.35762 7113 ft 243 kts 273°
2026-05-08 10:08 44.98672 9.33396 6765 ft 239 kts 316°
2026-05-08 10:08 45.00104 9.32263 6476 ft 231 kts 354°
2026-05-08 10:08 45.01797 9.32122 6215 ft 228 kts
2026-05-08 10:08 45.03564 9.32035 5927 ft 228 kts
2026-05-08 10:09 45.05244 9.31905 5639 ft 227 kts 359°
2026-05-08 10:09 45.06894 9.31749 5356 ft 227 kts 359°
2026-05-08 10:09 45.08552 9.31581 5072 ft 226 kts 359°
2026-05-08 10:09 45.10189 9.31407 4792 ft 226 kts 358°
2026-05-08 10:10 45.11814 9.31231 4518 ft 225 kts 358°
2026-05-08 10:10 45.13459 9.31052 4243 ft 224 kts 358°
2026-05-08 10:10 45.15044 9.30878 3986 ft 222 kts 359°
2026-05-08 10:10 45.16696 9.30696 3704 ft 221 kts 359°
2026-05-08 10:11 45.18327 9.30518 3424 ft 219 kts 359°
2026-05-08 10:11 45.19905 9.30348 3157 ft 218 kts 359°
2026-05-08 10:11 45.21495 9.30176 2977 ft 211 kts 359°
2026-05-08 10:11 45.22981 9.30016 2942 ft 197 kts 358°
2026-05-08 10:12 45.24467 9.29855 2959 ft 190 kts 359°
2026-05-08 10:12 45.25848 9.29709 3008 ft 190 kts 359°
2026-05-08 10:12 45.27228 9.29562 2976 ft 189 kts 359°
2026-05-08 10:12 45.28656 9.29408 2951 ft 182 kts 359°
2026-05-08 10:13 45.30020 9.29261 2904 ft 180 kts 359°
2026-05-08 10:13 45.31359 9.29118 2664 ft 179 kts 359°
2026-05-08 10:13 45.32719 9.28971 2406 ft 177 kts 359°
2026-05-08 10:13 45.34095 9.28823 2145 ft 176 kts 359°
2026-05-08 10:14 45.35418 9.28682 1893 ft 176 kts 358°
2026-05-08 10:14 45.36710 9.28541 1663 ft 162 kts 359°
2026-05-08 10:14 45.37862 9.28416 1420 ft 146 kts 358°
2026-05-08 10:14 45.38981 9.28296 1186 ft 134 kts 358°
2026-05-08 10:15 45.40012 9.28187 1015 ft 133 kts 359°
2026-05-08 10:15 45.41110 9.28071 810 ft 135 kts 358°
2026-05-08 10:15 45.42232 9.27946 626 ft 136 kts 357°
2026-05-08 10:15 45.43281 9.27836 459 ft 131 kts 357°
2026-05-08 10:16 45.44327 9.27731 346 ft 119 kts 353°
2026-05-08 10:16 45.45035 9.27648 353 ft 57 kts 355°
2026-05-08 10:16 45.45317 9.27667 351 ft 17 kts 27°
2026-05-08 10:16 45.45428 9.27756 350 ft 11 kts 39°
2026-05-08 10:17 45.45520 9.27816 350 ft 13 kts
2026-05-08 10:17 45.45624 9.27819 352 ft 12 kts
2026-05-08 10:17 45.45726 9.27823 354 ft 12 kts 358°
2026-05-08 10:17 45.45830 9.27818 356 ft 12 kts 358°
2026-05-08 10:18 45.45891 9.27832 359 ft 4 kts 25°
2026-05-08 10:18 45.45919 9.27849 360 ft 2 kts 13°
2026-05-08 10:18 45.45947 9.27852 361 ft 3 kts
2026-05-08 10:18 45.45965 9.27852 362 ft 1 kts 359°
2026-05-08 10:19 45.45973 9.27852 363 ft 1 kts
2026-05-08 10:19 45.45976 9.27852 363 ft 0 kts